Location: Anjeux
(47.8815°N, 6.2076°E)
Time: 17:39:20
(UTC+00:00)

Meteor 2-2 Rocket - Pass Details

Date: 05 March 2021
Orbit: 852 x 929 km, 81.3° (Epoch: 14 April)

Event Time Altitude Azimuth Distance (km) Brightness Sun altitude
Exits shadow 04:14:18 25° 215° (SW) 1,766 5.4 -19.8°
Maximum altitude 04:17:46 58° 286° (WNW) 1,078 4.4 -19.2°
Drops below altitude 10° 04:23:44 10° 5° (N) 2,645 7.0 -18.3°
Sets 04:26:17 0° 9° (N) 3,591 7.7 -17.8°
